Theta_e
320 321 321 320 320 319 321 320 322 320 320 319 318 317 317 317 317 312 300 298 299 298 298 299 299 299 298 298 297 296 295 294 294 294 294 293 293 293 293 294 294 293 293 293
318 319 320 320 319 319 319 319 319 319 319 317 318 319 318 319 316 312 298 300 300 300 299 299 299 299 298 298 297 296 295 295 294 293 293 292 292 292 293 293 293 292 292 292
324 319 320 322 318 319 317 318 318 319 316 310 312 315 305 301 301 299 300 300 300 300 299 299 299 299 298 298 297 296 295 294 294 293 292 292 292 292 291 292 292 291 291 291
324 321 324 316 313 311 314 313 304 305 303 301 300 298 298 298 298 298 298 298 300 299 299 299 299 299 299 298 297 296 295 295 294 293 292 292 292 291 291 291 291 291 291 291
324 324 320 317 308 307 308 308 303 303 302 301 299 298 298 300 301 301 300 300 300 300 300 300 299 299 298 297 297 296 295 295 294 293 292 292 292 291 291 291 290 290 290 291
315 320 319 308 301 301 304 308 302 300 299 298 298 294 296 299 299 299 300 300 300 300 300 300 299 299 298 297 297 296 296 295 295 293 292 292 292 291 291 290 290 290 290 290
318 319 316 308 301 304 312 310 300 298 298 297 296 295 296 297 299 299 299 299 300 300 300 300 299 299 298 297 296 297 296 295 294 293 292 292 292 291 290 290 289 289 289 288
313 316 315 302 304 308 306 302 300 299 298 298 298 298 299 299 298 297 297 299 300 299 299 300 299 298 298 296 297 297 295 294 293 292 292 292 292 291 290 289 289 289 288 288
312 312 306 301 303 302 301 300 300 299 298 298 298 298 298 297 296 295 296 296 297 297 297 297 297 297 297 297 296 296 295 293 292 292 292 292 291 290 289 289 289 288 288 288
310 310 305 304 301 299 298 299 298 297 297 297 297 298 298 298 297 296 296 295 295 294 294 294 294 294 294 294 296 296 294 293 292 292 291 291 290 289 289 288 288 288 288 288
306 304 303 301 299 298 298 298 298 298 296 296 296 295 296 295 294 292 292 291 291 291 291 291 292 293 294 294 294 294 293 292 291 291 291 290 289 289 289 289 288 288 288 287
304 303 301 299 298 298 297 297 296 295 294 293 292 292 292 291 290 289 290 290 289 290 289 289 289 290 289 289 290 291 290 290 290 290 289 289 289 290 289 288 288 288 288 287
299 299 297 296 295 295 294 292 291 290 289 290 288 288 288 288 287 287 287 288 287 287 286 286 286 287 287 288 288 289 288 288 288 288 289 289 289 288 288 288 288 288 287 287
299 298 295 294 292 291 291 290 289 288 287 285 284 284 284 284 285 285 285 283 283 283 283 284 285 284 283 284 285 288 288 289 289 288 288 288 287 287 288 287 287 288 286 286
295 294 293 291 290 289 288 287 287 286 284 283 282 282 281 281 282 282 281 282 281 280 282 283 282 282 282 283 283 284 286 287 287 287 286 287 286 287 286 287 287 286 286 287
293 291 290 289 288 288 286 284 285 283 283 282 281 281 281 280 280 281 280 281 280 279 280 282 282 281 281 281 282 282 283 282 282 283 284 285 285 286 286 286 285 285 285 286
292 290 289 288 288 286 284 283 284 283 282 282 281 281 280 279 279 280 279 279 279 279 279 280 280 279 280 280 280 280 280 281 281 283 283 284 284 284 284 284 283 284 284 284
289 288 287 286 285 284 283 283 283 282 282 282 280 280 280 279 278 279 278 278 278 279 278 278 276 276 277 279 278 277 277 277 278 279 280 280 281 281 281 280 281 281 281 283
286 285 284 284 283 283 283 282 283 281 281 281 280 280 279 278 278 277 278 278 278 277 276 276 275 275 276 277 276 275 275 275 276 276 277 278 278 278 278 278 278 278 279 280
285 284 284 283 283 283 282 282 282 280 280 280 279 278 278 278 278 277 276 277 277 276 275 274 274 274 275 274 274 274 274 275 275 275 276 276 276 276 276 277 277 277 278 279
285 284 284 283 283 283 282 282 280 280 280 278 278 277 277 277 276 276 275 276 275 274 272 272 272 272 272 272 272 273 274 274 274 275 275 275 275 275 276 276 276 277 276 277
284 283 282 282 281 281 281 280 280 279 278 277 277 276 276 275 275 275 275 275 273 272 272 272 271 271 270 270 271 271 272 273 274 274 275 275 275 275 275 275 275 275 276 277
283 282 282 281 281 281 280 279 279 278 277 277 277 275 275 275 275 275 274 273 272 272 272 271 271 271 270 269 269 269 270 271 271 271 271 272 272 273 274 275 275 275 276 276
283 282 281 281 281 280 280 279 279 278 277 277 276 275 275 275 274 274 272 271 271 271 271 271 270 270 269 269 269 268 268 269 269 270 270 271 271 271 272 274 274 275 275 275
282 282 281 281 280 279 279 278 278 277 277 277 275 275 275 274 273 273 271 271 271 271 270 270 269 269 269 268 267 267 268 268 269 269 270 269 269 271 273 274 274 274 275 275
282 281 281 280 279 278 278 278 276 276 277 275 275 275 274 274 273 271 271 271 271 270 270 269 269 268 268 267 267 267 267 266 267 267 268 267 268 269 269 269 270 271 272 273
281 280 279 278 278 278 278 277 276 277 276 275 275 275 274 273 272 271 271 270 270 269 269 268 268 267 267 266 266 267 265 265 264 263 264 265 266 266 266 266 266 267 268 269
Wind_Speed
3 4 3 6 4 10 9 16 13 28 23 30 15 10 11 11 9 9 8 8 8 7 6 15 13 11 10 11 10 10 11 12 11 9 10 12 13 14 15 16 17 17 17 16
4 8 10 7 9 11 15 21 22 26 24 20 14 11 12 14 12 11 7 7 7 6 8 11 12 14 13 13 13 11 12 13 11 9 11 11 12 15 14 15 15 16 16 16
10 4 5 8 14 18 9 11 10 12 9 6 5 7 7 6 7 6 5 6 7 8 11 14 15 17 18 16 12 13 14 13 12 11 11 10 10 13 13 14 15 15 16 15
5 2 19 5 2 4 9 2 5 6 6 4 2 3 5 4 4 5 7 7 7 9 14 15 15 18 20 17 16 16 16 15 13 12 11 9 9 10 13 14 15 17 15 15
5 10 12 9 2 1 5 2 4 3 2 4 4 3 2 3 2 2 3 7 13 18 19 18 18 20 20 20 20 19 20 19 15 12 11 10 10 10 12 13 15 17 16 18
3 6 7 3 3 2 1 3 0 2 4 1 1 3 4 5 5 8 15 18 20 22 21 19 23 24 23 24 25 24 22 21 16 13 11 10 11 9 11 13 14 15 16 17
6 6 5 0 3 2 2 1 2 1 1 3 1 5 6 7 9 12 15 18 21 20 23 26 22 24 26 27 27 31 23 20 17 15 12 10 10 8 9 12 14 14 14 15
3 4 7 2 2 3 3 2 4 5 7 5 6 8 8 10 8 10 14 17 20 20 23 24 22 18 20 22 31 27 22 22 20 15 12 10 9 7 7 9 12 13 14 15
7 4 2 4 6 4 4 1 3 3 5 4 6 6 8 8 11 12 19 20 21 18 18 19 23 22 21 31 28 25 25 27 22 15 13 11 9 6 6 8 11 12 13 15
2 4 2 3 3 3 4 2 2 5 8 11 8 10 9 10 10 11 17 20 23 23 22 24 27 26 25 29 38 30 32 30 22 19 17 14 10 7 7 9 12 12 12 14
2 2 3 2 1 1 11 13 14 14 14 13 12 14 12 12 13 18 18 20 20 21 21 19 25 27 26 24 24 23 27 27 24 20 19 13 10 9 9 7 8 12 13 14
4 7 4 8 11 13 16 13 13 13 14 16 17 14 15 11 15 15 16 17 18 19 19 21 22 22 25 28 29 19 15 15 18 17 14 9 7 8 7 8 8 8 9 13
5 7 17 13 14 14 14 13 13 14 15 11 17 16 15 13 16 18 19 20 21 21 21 22 24 24 24 27 29 20 15 9 9 3 2 6 5 2 6 6 9 7 8 8
12 10 10 13 8 11 13 14 16 17 16 16 14 13 14 14 17 18 19 21 21 22 23 24 23 23 29 30 29 25 18 13 9 9 7 6 5 5 7 8 9 5 6 10
15 14 13 12 12 10 15 13 11 11 10 11 12 14 16 16 15 16 19 20 22 22 23 20 22 22 26 26 25 26 26 17 15 14 12 9 9 9 11 8 8 5 7 8
13 13 12 12 11 10 10 10 8 5 5 10 12 13 13 16 16 16 19 21 21 22 24 17 19 25 28 28 25 24 22 23 24 22 18 15 15 13 10 6 7 7 6 7
13 7 9 9 8 8 7 4 5 5 7 8 10 11 12 14 13 16 19 21 21 22 20 22 24 28 28 24 21 20 21 22 25 21 19 13 12 12 12 12 14 11 15 11
15 11 9 9 6 6 5 7 8 7 4 4 7 8 11 14 13 18 22 22 23 17 21 24 31 30 29 20 21 22 20 20 21 20 20 17 16 14 14 14 15 16 18 18
19 13 14 10 10 8 6 5 5 2 2 4 8 10 13 16 18 19 21 22 16 15 24 25 30 28 26 21 24 26 24 24 21 20 19 19 19 18 17 17 17 19 20 21
16 16 15 11 9 6 3 4 5 2 3 5 9 14 14 16 17 20 21 18 15 22 26 28 29 27 26 27 28 27 24 23 23 21 20 18 18 20 20 20 20 20 20 21
13 14 13 10 7 4 4 9 5 5 7 12 15 13 13 14 16 19 16 13 20 23 27 25 25 26 30 30 31 25 23 23 22 21 19 19 22 23 21 22 21 21 23 23
15 14 13 9 7 6 13 8 8 12 14 14 13 15 15 14 16 16 15 17 22 23 27 23 24 30 32 34 27 26 24 23 23 22 20 18 19 20 21 23 22 23 21 18
16 16 13 11 8 12 11 11 13 13 13 11 12 17 14 13 14 15 14 23 23 24 26 24 28 33 33 29 26 26 26 23 23 23 22 21 22 22 21 20 20 22 23 23
18 17 14 10 13 12 9 10 10 9 10 8 10 12 13 12 15 13 17 22 24 26 25 27 30 31 31 27 26 26 26 25 24 24 25 21 25 25 23 22 21 22 22 21
18 17 14 13 11 10 11 9 8 8 7 7 11 11 11 12 14 18 23 24 25 25 25 27 28 29 27 27 26 27 27 26 26 25 21 21 23 25 23 23 22 22 21 20
17 15 12 13 15 13 10 8 8 6 6 7 11 10 11 12 16 21 23 25 26 25 26 26 28 29 27 28 29 26 27 27 25 26 22 21 22 22 21 21 19 17 16 15
17 16 16 15 12 11 9 8 6 5 4 7 9 8 10 13 18 21 24 26 25 25 25 26 28 28 28 29 28 26 26 26 26 28 25 23 21 22 28 29 29 28 27 26
Wind_Direction
271 233 223 205 178 241 233 250 260 275 280 279 293 218 215 226 221 213 196 192 186 191 179 173 187 208 231 252 260 282 299 290 300 314 317 329 322 328 328 330 329 324 324 324
269 263 238 245 233 248 243 257 267 269 272 287 273 246 210 225 202 208 192 191 188 187 179 189 205 220 237 249 253 266 281 280 290 317 315 326 324 328 328 325 322 324 322 325
273 223 324 262 234 237 237 231 239 260 284 358 352 299 165 145 152 164 192 202 201 200 198 206 216 226 229 246 257 257 272 284 292 298 317 322 327 320 317 319 322 328 322 323
279 57 268 237 141 217 231 199 354 19 48 26 30 74 95 107 163 218 245 245 210 209 218 227 237 239 245 243 243 251 265 271 280 283 302 311 315 311 311 315 323 326 323 323
251 256 295 288 317 279 203 197 359 95 48 19 10 24 9 37 54 281 258 238 236 240 241 244 244 253 247 245 244 246 260 263 261 264 283 294 295 302 306 314 322 325 320 319
149 268 272 164 138 5 323 250 81 114 63 173 210 36 257 256 262 259 259 257 254 251 242 239 248 260 255 247 238 240 255 258 244 248 260 272 281 292 309 312 314 320 328 338
227 257 279 203 109 14 132 241 334 42 316 325 286 207 243 279 278 274 280 284 265 242 239 251 267 279 267 257 238 238 252 251 228 234 245 253 263 261 290 305 307 313 322 328
196 234 276 131 23 164 205 221 214 224 238 258 268 279 283 285 279 285 285 278 268 263 267 275 286 287 277 258 261 235 235 227 222 230 230 223 234 258 282 299 297 308 317 325
194 207 100 35 51 300 219 253 333 319 300 283 284 311 327 330 349 357 2 1 1 350 348 353 350 322 298 281 250 250 238 219 219 222 209 204 218 243 267 286 294 301 313 320
120 173 243 15 281 83 94 121 331 350 20 46 50 32 23 18 13 9 12 11 0 360 2 349 339 344 345 329 281 253 228 217 211 196 196 193 208 235 251 282 291 296 308 315
186 265 219 89 81 25 53 53 53 61 54 44 39 30 22 27 23 15 9 6 3 358 348 356 347 347 350 342 317 292 259 219 199 196 188 194 212 225 225 280 287 292 302 311
204 193 151 78 64 70 71 62 61 55 46 41 39 33 26 26 13 4 357 352 349 349 346 345 340 343 351 354 356 345 316 233 212 197 183 188 223 194 228 263 297 282 301 301
162 87 101 100 71 69 76 73 67 63 55 43 34 24 19 7 357 350 353 5 4 352 345 344 344 344 348 340 344 350 29 24 321 300 169 141 169 280 301 312 312 251 291 305
119 115 67 47 85 75 79 76 71 68 64 51 33 24 15 7 5 10 14 357 355 351 347 345 351 359 354 351 345 320 315 312 291 301 302 306 296 296 292 292 271 257 317 307
80 83 103 112 97 85 76 71 66 61 48 36 28 25 19 8 358 357 355 352 352 350 349 359 354 350 349 349 348 352 354 312 307 306 296 291 297 297 301 300 288 296 318 326
105 99 102 92 89 82 78 63 80 75 56 36 22 11 7 356 344 345 345 344 346 337 332 331 342 348 350 353 345 348 348 348 346 342 335 332 327 316 302 284 312 302 322 325
114 96 89 90 93 94 92 109 110 81 55 35 7 357 351 349 348 346 343 341 334 334 352 355 353 355 354 354 356 354 350 345 340 328 319 326 340 335 334 336 334 312 322 315
101 103 100 110 108 129 133 99 99 65 32 14 346 337 334 346 341 340 338 336 345 2 2 351 344 339 337 334 342 345 339 333 331 329 330 337 338 335 331 327 325 325 323 320
113 112 113 122 136 129 105 101 143 49 330 306 328 330 350 356 350 348 353 347 349 351 343 340 340 336 331 329 336 332 325 317 311 307 304 304 305 307 308 306 305 303 303 305
116 126 138 122 119 127 148 160 146 33 346 328 353 26 13 3 2 355 345 341 354 343 343 338 335 332 332 330 327 323 313 307 305 303 300 296 296 297 297 295 294 292 297 302
142 145 129 129 131 140 131 144 96 68 41 54 46 35 15 358 352 351 347 344 347 347 344 345 343 341 337 332 328 317 311 306 303 301 299 296 297 298 296 298 296 294 294 295
149 136 145 149 142 111 132 127 80 79 71 59 46 26 10 355 353 350 354 348 338 340 345 340 340 340 340 336 328 323 320 317 316 311 302 294 293 293 292 292 293 293 295 302
139 139 148 165 164 137 118 84 83 71 55 46 36 14 9 355 354 348 340 341 337 337 338 333 334 337 338 334 330 329 327 325 321 315 309 311 306 299 294 293 292 293 295 299
138 155 159 157 141 126 104 85 85 60 46 34 14 5 3 353 350 346 339 338 343 342 337 334 336 339 339 335 330 326 323 318 313 311 308 310 314 294 286 282 280 290 294 298
148 155 156 151 137 127 113 96 75 43 37 27 5 4 7 359 352 346 350 349 348 348 339 339 339 339 338 336 333 330 326 320 318 313 317 325 324 333 303 283 286 292 294 297
152 158 158 158 139 128 113 93 73 40 28 2 1 8 1 360 359 355 358 356 355 351 340 340 339 339 337 334 330 330 334 333 332 328 326 328 325 325 324 343 341 336 325 325
157 150 132 126 128 123 111 90 69 45 16 351 354 359 358 0 2 1 2 360 358 348 345 341 341 340 337 335 334 334 336 334 332 328 326 322 323 321 321 318 314 311 308 305